Regional Weather Roundup
Issued by NWS

Home | Current Version | Previous Version | Graphics & Text | Print | Product List | Glossary On
Versions: 1 2 3 4 5 6 7 8 9 10 11 12 13 14 15 16 17 18 19 20 21 22 23 24 25 26 27 28 29 30 31 32 33 34 35 36 37 38 39 40 41 42 43 44 45 46 47 48 49 50
000
ASUS43 KOAX 241902
RWRNE

WEATHER ROUNDUP FOR NEBRASKA
NATIONAL WEATHER SERVICE OMAHA NE
200 PM CDT SUN SEP 24 2017

NOTES: SATELLITE DATA IS BEING USED TO AUGMENT CLOUD COVER ABOVE
       12000 FEET.
       "FAIR" INDICATES FEW OR NO CLOUDS BELOW 12,000 FEET WITH NO
       SIGNIFICANT WEATHER AND/OR OBSTRUCTIONS TO VISIBILITY.


NEZ001>004-019>022-054>056-242000-
NEBRASKA PANHANDLE

CITY           SKY/WX    TMP DP  RH WIND       PRES   REMARKS
SCOTTSBLUFF    CLOUDY    53  43  68 N9        30.03F
ALLIANCE       CLOUDY    51  43  74 N16       30.02F
CHADRON        CLOUDY    51  42  71 NE10      30.05S
GORDON         CLOUDY    47  44  90 N13       30.04S
KIMBALL        CLOUDY    49  44  84 NE10      30.03F
SIDNEY         CLOUDY    52  44  74 NE14      30.02S
$$

NEZ057>060-069>072-079>082-242000-
SOUTHWEST NEBRASKA

CITY           SKY/WX    TMP DP  RH WIND       PRES   REMARKS
NORTH PLATTE   CLOUDY    56  50  80 N7        30.01R
IMPERIAL       CLOUDY    53  48  83 NE12      29.99F
LEXINGTON      DRIZZLE   56  53  92 N7        29.99S
MCCOOK         LGT RAIN  56  55  97 NE10      29.97F
OGALLALA       CLOUDY    55  48  76 NE10      30.00S
$$

NEZ005>010-023>029-035>040-094-242000-
NORTH CENTRAL NEBRASKA

CITY           SKY/WX    TMP DP  RH WIND       PRES   REMARKS
VALENTINE      CLOUDY    54  49  83 NW10      30.01S
AINSWORTH      CLOUDY    53  51  92 N15       30.01S
BROKEN BOW     CLOUDY    55  51  86 N14       29.99R
O`NEILL        LGT RAIN  55  55  98 NW12      29.98S
ORD            LGT RAIN  55  52  89 NW13      29.97R
THEDFORD       CLOUDY    55  49  82 N9        30.02S
$$

NEZ041-046>049-061>064-073>077-083>087-242000-
SOUTH CENTRAL NEBRASKA

CITY           SKY/WX    TMP DP  RH WIND       PRES   REMARKS
GRAND ISLAND   PTSUNNY   71  64  78 NW14      29.93S
AURORA         CLOUDY    77  62  59 W8        29.91S
HASTINGS       CLOUDY    73  60  63 SW9       29.94S
HEBRON         MOSUNNY   86  62  44 SW14G20   29.90F
HOLDREGE       RAIN      57  55  94 NW10      29.97R
KEARNEY        LGT RAIN  60  59  96 NW10      29.97R
YORK           MOSUNNY   84  63  48 SW17G23   29.89F
$$

NEZ011>018-030>034-042>045-242000-
NORTHEAST NEBRASKA

CITY           SKY/WX    TMP DP  RH WIND       PRES   REMARKS
NORFOLK        PTSUNNY   77  65  66 W12       29.88S
ALBION         CLOUDY    65  58  78 NW13      29.94F
BLAIR          MOSUNNY   88  64  43 S21G26    29.90F
COLUMBUS       PTSUNNY   82  67  60 W9        29.89F
FREMONT        MOSUNNY   86  62  44 S16G22    29.89F
TEKAMAH        PTSUNNY   87  63  44 S14G26    29.87F
WAYNE          CLOUDY    77  70  79 W9        29.89R
$$

NEZ050>053-065>068-078-088>093-242000-
SOUTHEAST NEBRASKA

CITY           SKY/WX    TMP DP  RH WIND       PRES   REMARKS
LINCOLN        PTSUNNY   88  65  46 S16G22    29.89F HX  90
OMAHA EPPLEY   PTSUNNY   86  65  49 S23G30    29.89F
BEATRICE       CLOUDY    86  64  47 S17G23    29.89F
FALLS CITY     MOSUNNY   89  63  41 S17G24    29.91F HX  90
NEBRASKA CITY  PTSUNNY   87  64  46 S15G23    29.91F
PLATTSMOUTH    CLOUDY    90  64  41 S16G24    29.90F HX  91
$$

NEZ044-045-051>053-067-242000-
OMAHA AREA

CITY           SKY/WX    TMP DP  RH WIND       PRES   REMARKS
OMAHA EPPLEY   PTSUNNY   86  65  49 S23G30    29.89F
BLAIR          MOSUNNY   88  64  43 S21G26    29.90F
FREMONT        MOSUNNY   86  62  44 S16G22    29.89F
MILLARD        CLOUDY    89  66  46 S13       29.89F HX  91
OFFUTT AFB     PTSUNNY   87  66  49 SE14G23   29.88F
PLATTSMOUTH    CLOUDY    90  64  41 S16G24    29.90F HX  91
WAHOO          MOCLDY    86  62  44 SW14G23   29.89F
$$



USA.gov is the U.S. government's official web portal to all federal, state and local government web resources and services.